Date,TemperatureHighF,TemperatureAvgF,TemperatureLowF,DewpointHighF,DewpointAvgF,DewpointLowF,HumidityHigh,HumidityAvg,HumidityLow,PressureMaxIn,PressureMinIn,WindSpeedMaxMPH,WindSpeedAvgMPH,GustSpeedMaxMPH,PrecipitationSumIn
2013-5-1,49,39,32,22,18,10,66,45,23,30.89,30.41,13,7,19,0.00
2013-5-2,55,43,29,25,20,14,57,41,23,30.93,30.63,10,4,12,0.00
2013-5-3,59,44,33,28,21,12,60,41,25,30.63,30.36,8,3,15,0.00
2013-5-4,56,43,30,22,16,10,57,36,21,30.52,30.44,9,2,15,0.00
2013-5-5,62,49,34,27,22,16,58,36,22,30.52,30.33,9,3,15,0.00
2013-5-6,69,55,37,32,27,23,60,36,21,30.36,30.15,9,4,15,0.00
2013-5-7,75,59,42,45,37,28,73,46,25,30.17,29.94,20,8,26,0.00
2013-5-8,72,59,45,48,41,34,88,55,27,30.26,30.02,12,6,16,0.00
2013-5-9,64,54,42,45,41,37,86,63,45,30.34,30.25,10,3,15,0.00
2013-5-10,75,58,44,50,39,23,84,53,22,30.51,30.24,27,6,32,0.00
2013-5-11,63,50,37,32,26,22,64,40,27,30.60,30.39,9,4,15,0.00
2013-5-12,76,60,42,40,34,27,59,38,24,30.41,30.08,16,7,18,0.00
2013-5-13,90,77,62,48,41,36,42,29,17,30.08,29.78,16,7,19,0.00
2013-5-14,78,70,55,51,42,34,49,37,24,30.00,29.71,18,8,26,0.00
2013-5-15,78,65,48,44,40,32,68,42,28,30.13,29.95,13,6,18,0.00
2013-5-16,73,64,59,58,50,42,88,61,41,29.96,29.83,14,8,20,0.10
2013-5-17,78,65,49,59,53,46,91,68,44,29.99,29.81,19,4,27,0.00
2013-5-18,70,62,55,58,54,48,90,76,62,29.95,29.82,15,5,21,0.21
2013-5-19,59,55,51,55,52,47,93,89,84,29.89,29.83,18,11,27,0.27
2013-5-20,52,50,47,49,46,44,92,89,84,30.06,29.76,29,22,47,0.24
2013-5-21,50,46,42,44,42,40,94,86,76,30.20,30.06,22,15,47,0.07
2013-5-22,55,49,44,48,45,42,94,85,67,30.38,30.17,12,6,47,0.00
2013-5-23,67,57,44,48,44,40,94,66,42,30.39,30.13,21,12,47,0.00
2013-5-24,77,65,56,58,53,47,79,66,48,30.13,29.93,26,12,32,0.00
2013-5-25,82,67,52,60,55,47,86,66,41,30.08,29.86,19,6,24,0.00
2013-5-26,69,60,52,62,56,51,96,90,70,30.08,29.88,12,4,24,0.02
2013-5-27,72,60,51,63,56,47,97,88,63,30.04,29.78,17,7,24,0.43
2013-5-28,75,62,47,54,47,38,93,63,27,29.92,29.77,9,4,24,0.00
2013-5-29,72,60,52,58,53,49,95,79,51,29.82,29.58,12,4,23,1.04
2013-5-30,63,57,53,57,50,42,95,80,61,29.67,29.47,24,8,30,0.12
2013-5-31,56,52,47,46,44,41,93,73,62,30.11,29.65,26,17,37,0.13